Time,TemperatureF,DewpointF,PressureIn,WindDirection,WindDirectionDegrees,WindSpeedMPH,WindSpeedGustMPH,Humidity,HourlyPrecipIn,Conditions,Clouds,dailyrainin,SoftwareType,DateUTC
2013-04-27 00:02:00,65.8,32.0,30.07,West,274,6.0,10.0,28,0.00,,,0.00,weatherlink.com 1.10,2013-04-27 07:02:00,
2013-04-27 00:17:00,65.7,32.0,30.07,West,262,5.0,11.0,28,0.00,,,0.00,weatherlink.com 1.10,2013-04-27 07:17:00,
2013-04-27 00:32:00,65.7,31.0,30.07,West,278,5.0,6.0,27,0.00,,,0.00,weatherlink.com 1.10,2013-04-27 07:32:00,
2013-04-27 00:47:00,65.6,30.0,30.07,WNW,285,2.0,9.0,26,0.00,,,0.00,weatherlink.com 1.10,2013-04-27 07:47:00,
2013-04-27 01:02:00,65.3,29.0,30.06,West,273,3.0,7.0,26,0.00,,,0.00,weatherlink.com 1.10,2013-04-27 08:02:00,
2013-04-27 01:17:00,64.8,30.0,30.06,WNW,283,3.0,6.0,27,0.00,,,0.00,weatherlink.com 1.10,2013-04-27 08:17:00,
2013-04-27 01:32:00,64.9,29.0,30.05,WNW,289,3.0,7.0,26,0.00,,,0.00,weatherlink.com 1.10,2013-04-27 08:32:00,
2013-04-27 01:47:00,65.2,29.0,30.05,NW,309,3.0,8.0,26,0.00,,,0.00,weatherlink.com 1.10,2013-04-27 08:47:00,
2013-04-27 02:02:00,65.2,28.0,30.05,West,268,1.0,5.0,25,0.00,,,0.00,weatherlink.com 1.10,2013-04-27 09:02:00,
2013-04-27 02:17:00,65.0,28.0,30.04,WSW,245,3.0,7.0,25,0.00,,,0.00,weatherlink.com 1.10,2013-04-27 09:17:00,
2013-04-27 02:32:00,65.2,27.0,30.03,NW,316,1.0,6.0,24,0.00,,,0.00,weatherlink.com 1.10,2013-04-27 09:32:00,
2013-04-27 02:47:00,65.0,27.0,30.03,WSW,256,3.0,6.0,24,0.00,,,0.00,weatherlink.com 1.10,2013-04-27 09:47:00,
2013-04-27 03:02:00,62.8,28.0,30.03,ESE,110,0.0,1.0,27,0.00,,,0.00,weatherlink.com 1.10,2013-04-27 10:02:00,
2013-04-27 03:17:00,63.0,28.0,30.04,ESE,115,0.0,0.0,27,0.00,,,0.00,weatherlink.com 1.10,2013-04-27 10:17:00,
2013-04-27 03:32:00,62.3,29.0,30.04,ESE,108,0.0,1.0,29,0.00,,,0.00,weatherlink.com 1.10,2013-04-27 10:32:00,
2013-04-27 03:47:00,61.8,29.0,30.04,SW,227,0.0,2.0,29,0.00,,,0.00,weatherlink.com 1.10,2013-04-27 10:47:00,
2013-04-27 04:02:00,61.8,29.0,30.04,East,99,0.0,1.0,29,0.00,,,0.00,weatherlink.com 1.10,2013-04-27 11:02:00,
2013-04-27 04:17:00,61.6,28.0,30.03,SSE,148,1.0,2.0,28,0.00,,,0.00,weatherlink.com 1.10,2013-04-27 11:17:00,
2013-04-27 04:32:00,62.2,29.0,30.04,SE,138,0.0,1.0,28,0.00,,,0.00,weatherlink.com 1.10,2013-04-27 11:32:00,
2013-04-27 04:47:00,61.2,27.0,30.03,WSW,244,0.0,2.0,27,0.00,,,0.00,weatherlink.com 1.10,2013-04-27 11:47:00,
2013-04-27 05:02:00,60.9,27.0,30.03,WSW,245,1.0,1.0,27,0.00,,,0.00,weatherlink.com 1.10,2013-04-27 12:02:00,
2013-04-27 05:17:00,62.5,26.0,30.03,SW,231,0.0,0.0,25,0.00,,,0.00,weatherlink.com 1.10,2013-04-27 12:17:00,
2013-04-27 05:32:00,61.8,27.0,30.03,SW,231,0.0,0.0,27,0.00,,,0.00,weatherlink.com 1.10,2013-04-27 12:32:00,
2013-04-27 05:47:00,61.5,27.0,30.04,West,269,0.0,0.0,27,0.00,,,0.00,weatherlink.com 1.10,2013-04-27 12:47:00,
2013-04-27 06:02:00,61.0,28.0,30.04,West,269,0.0,0.0,29,0.00,,,0.00,weatherlink.com 1.10,2013-04-27 13:02:00,
2013-04-27 06:18:00,61.6,27.0,30.05,West,269,0.0,0.0,27,0.00,,,0.00,weatherlink.com 1.10,2013-04-27 13:18:00,
2013-04-27 06:32:00,62.2,29.0,30.05,East,98,0.0,1.0,28,0.00,,,0.00,weatherlink.com 1.10,2013-04-27 13:32:00,
2013-04-27 07:02:00,64.7,28.0,30.06,SW,221,0.0,1.0,25,0.00,,,0.00,weatherlink.com 1.10,2013-04-27 14:02:00,
2013-04-27 07:18:00,65.6,28.0,30.06,SW,221,0.0,0.0,24,0.00,,,0.00,weatherlink.com 1.10,2013-04-27 14:18:00,
2013-04-27 07:33:00,66.6,30.0,30.06,West,274,0.0,1.0,25,0.00,,,0.00,weatherlink.com 1.10,2013-04-27 14:33:00,
2013-04-27 07:48:00,68.7,30.0,30.06,NNE,18,0.0,3.0,24,0.00,,,0.00,weatherlink.com 1.10,2013-04-27 14:48:00,
2013-04-27 08:03:00,70.5,31.0,30.06,East,88,0.0,3.0,23,0.00,,,0.00,weatherlink.com 1.10,2013-04-27 15:03:00,
2013-04-27 08:18:00,70.8,30.0,30.07,ENE,65,0.0,4.0,22,0.00,,,0.00,weatherlink.com 1.10,2013-04-27 15:18:00,
2013-04-27 08:33:00,71.5,29.0,30.06,ENE,72,2.0,4.0,21,0.00,,,0.00,weatherlink.com 1.10,2013-04-27 15:33:00,
2013-04-27 08:48:00,72.7,30.0,30.07,NNW,330,2.0,5.0,21,0.00,,,0.00,weatherlink.com 1.10,2013-04-27 15:48:00,
2013-04-27 09:03:00,73.9,30.0,30.06,NW,314,1.0,5.0,20,0.00,,,0.00,weatherlink.com 1.10,2013-04-27 16:03:00,
2013-04-27 09:18:00,73.7,30.0,30.06,NNE,32,1.0,7.0,20,0.00,,,0.00,weatherlink.com 1.10,2013-04-27 16:18:00,
2013-04-27 09:33:00,74.0,29.0,30.05,NW,309,1.0,6.0,19,0.00,,,0.00,weatherlink.com 1.10,2013-04-27 16:33:00,
2013-04-27 09:48:00,76.6,30.0,30.05,ENE,72,0.0,5.0,18,0.00,,,0.00,weatherlink.com 1.10,2013-04-27 16:48:00,
2013-04-27 10:03:00,77.6,29.0,30.05,ENE,59,4.0,5.0,17,0.00,,,0.00,weatherlink.com 1.10,2013-04-27 17:03:00,
2013-04-27 10:18:00,79.3,29.0,30.05,ENE,57,4.0,9.0,16,0.00,,,0.00,weatherlink.com 1.10,2013-04-27 17:18:00,
2013-04-27 10:33:00,79.4,29.0,30.06,North,359,2.0,6.0,16,0.00,,,0.00,weatherlink.com 1.10,2013-04-27 17:33:00,
2013-04-27 10:48:00,81.4,28.0,30.06,NNE,30,2.0,8.0,14,0.00,,,0.00,weatherlink.com 1.10,2013-04-27 17:48:00,
2013-04-27 11:03:00,81.9,28.0,30.06,ENE,62,1.0,9.0,14,0.00,,,0.00,weatherlink.com 1.10,2013-04-27 18:03:00,
2013-04-27 11:18:00,82.1,30.0,30.05,NNE,31,5.0,10.0,15,0.00,,,0.00,weatherlink.com 1.10,2013-04-27 18:18:00,
2013-04-27 11:33:00,83.1,23.0,30.05,ESE,103,4.0,11.0,11,0.00,,,0.00,weatherlink.com 1.10,2013-04-27 18:33:00,
2013-04-27 11:48:00,83.4,26.0,30.05,NE,41,3.0,8.0,12,0.00,,,0.00,weatherlink.com 1.10,2013-04-27 18:48:00,
2013-04-27 12:03:00,83.8,26.0,30.04,ENE,68,3.0,9.0,12,0.00,,,0.00,weatherlink.com 1.10,2013-04-27 19:03:00,
2013-04-27 12:18:00,84.0,24.0,30.03,ENE,65,3.0,12.0,11,0.00,,,0.00,weatherlink.com 1.10,2013-04-27 19:18:00,
2013-04-27 12:33:00,84.8,27.0,30.03,ENE,58,7.0,10.0,12,0.00,,,0.00,weatherlink.com 1.10,2013-04-27 19:33:00,
2013-04-27 12:48:00,85.0,23.0,30.02,North,360,6.0,10.0,10,0.00,,,0.00,weatherlink.com 1.10,2013-04-27 19:48:00,
2013-04-27 13:03:00,85.0,23.0,30.01,NE,40,6.0,9.0,10,0.00,,,0.00,weatherlink.com 1.10,2013-04-27 20:03:00,
2013-04-27 13:18:00,85.2,20.0,30.01,ENE,59,3.0,7.0,9,0.00,,,0.00,weatherlink.com 1.10,2013-04-27 20:18:00,
2013-04-27 13:33:00,86.6,21.0,30.00,NE,34,9.0,10.0,9,0.00,,,0.00,weatherlink.com 1.10,2013-04-27 20:33:00,
2013-04-27 13:48:00,86.5,18.0,30.00,ESE,122,4.0,10.0,8,0.00,,,0.00,weatherlink.com 1.10,2013-04-27 20:48:00,
2013-04-27 14:03:00,85.5,7.0,29.99,ENE,66,3.0,12.0,5,0.00,,,0.00,weatherlink.com 1.10,2013-04-27 21:03:00,
2013-04-27 14:18:00,85.7,11.0,29.98,East,91,7.0,10.0,6,0.00,,,0.00,weatherlink.com 1.10,2013-04-27 21:18:00,
2013-04-27 14:33:00,86.3,12.0,29.98,North,352,2.0,9.0,6,0.00,,,0.00,weatherlink.com 1.10,2013-04-27 21:33:00,
2013-04-27 14:49:00,85.9,11.0,29.96,NW,319,2.0,8.0,6,0.00,,,0.00,weatherlink.com 1.10,2013-04-27 21:49:00,
2013-04-27 15:04:00,86.8,12.0,29.96,NE,52,2.0,6.0,6,0.00,,,0.00,weatherlink.com 1.10,2013-04-27 22:04:00,
2013-04-27 15:19:00,87.5,13.0,29.95,NE,49,2.0,9.0,6,0.00,,,0.00,weatherlink.com 1.10,2013-04-27 22:19:00,
2013-04-27 15:34:00,86.3,15.0,29.95,NW,323,6.0,9.0,7,0.00,,,0.00,weatherlink.com 1.10,2013-04-27 22:34:00,
2013-04-27 15:49:00,86.5,12.0,29.94,East,79,3.0,8.0,6,0.00,,,0.00,weatherlink.com 1.10,2013-04-27 22:49:00,
2013-04-27 16:04:00,86.0,15.0,29.93,NW,316,2.0,9.0,7,0.00,,,0.00,weatherlink.com 1.10,2013-04-27 23:04:00,
2013-04-27 16:19:00,86.8,16.0,29.93,ENE,63,3.0,7.0,7,0.00,,,0.00,weatherlink.com 1.10,2013-04-27 23:19:00,
2013-04-27 16:34:00,83.5,31.0,29.93,WNW,295,4.0,13.0,15,0.00,,,0.00,weatherlink.com 1.10,2013-04-27 23:34:00,
2013-04-27 16:49:00,82.6,30.0,29.92,West,265,7.0,16.0,15,0.00,,,0.00,weatherlink.com 1.10,2013-04-27 23:49:00,
2013-04-27 17:04:00,81.2,31.0,29.93,WNW,284,12.0,19.0,16,0.00,,,0.00,weatherlink.com 1.10,2013-04-28 00:04:00,
2013-04-27 17:19:00,81.2,29.0,29.92,WSW,254,15.0,18.0,15,0.00,,,0.00,weatherlink.com 1.10,2013-04-28 00:19:00,
2013-04-27 17:34:00,80.5,27.0,29.92,West,269,12.0,16.0,14,0.00,,,0.00,weatherlink.com 1.10,2013-04-28 00:34:00,
2013-04-27 17:49:00,80.8,26.0,29.93,WNW,300,8.0,12.0,13,0.00,,,0.00,weatherlink.com 1.10,2013-04-28 00:49:00,
2013-04-27 18:04:00,80.0,27.0,29.93,West,259,7.0,13.0,14,0.00,,,0.00,weatherlink.com 1.10,2013-04-28 01:04:00,
2013-04-27 18:19:00,79.8,28.0,29.92,WSW,237,11.0,12.0,15,0.00,,,0.00,weatherlink.com 1.10,2013-04-28 01:19:00,
2013-04-27 18:34:00,78.9,32.0,29.92,West,279,6.0,13.0,18,0.00,,,0.00,weatherlink.com 1.10,2013-04-28 01:34:00,
2013-04-27 18:49:00,77.9,32.0,29.92,West,279,6.0,12.0,19,0.00,,,0.00,weatherlink.com 1.10,2013-04-28 01:49:00,
2013-04-27 19:04:00,76.6,27.0,29.92,West,273,6.0,13.0,16,0.00,,,0.00,weatherlink.com 1.10,2013-04-28 02:04:00,
2013-04-27 19:19:00,75.0,23.0,29.91,West,273,10.0,16.0,14,0.00,,,0.00,weatherlink.com 1.10,2013-04-28 02:19:00,
2013-04-27 19:34:00,73.9,23.0,29.91,WNW,295,5.0,15.0,15,0.00,,,0.00,weatherlink.com 1.10,2013-04-28 02:34:00,
2013-04-27 19:49:00,72.8,24.0,29.91,WSW,243,7.0,16.0,16,0.00,,,0.00,weatherlink.com 1.10,2013-04-28 02:49:00,
2013-04-27 20:04:00,72.3,25.0,29.92,WNW,295,9.0,19.0,17,0.00,,,0.00,weatherlink.com 1.10,2013-04-28 03:04:00,
2013-04-27 20:19:00,70.6,30.0,29.92,South,191,0.0,10.0,22,0.00,,,0.00,weatherlink.com 1.10,2013-04-28 03:19:00,
2013-04-27 20:34:00,70.6,32.0,29.92,SSW,212,4.0,13.0,24,0.00,,,0.00,weatherlink.com 1.10,2013-04-28 03:34:00,
2013-04-27 20:49:00,69.9,32.0,29.93,SSW,193,3.0,14.0,25,0.00,,,0.00,weatherlink.com 1.10,2013-04-28 03:49:00,
2013-04-27 21:04:00,71.0,31.0,29.93,WNW,303,12.0,21.0,23,0.00,,,0.00,weatherlink.com 1.10,2013-04-28 04:04:00,
2013-04-27 21:19:00,71.1,31.0,29.93,West,274,11.0,19.0,23,0.00,,,0.00,weatherlink.com 1.10,2013-04-28 04:19:00,
2013-04-27 21:34:00,70.8,30.0,29.93,WSW,257,16.0,19.0,22,0.00,,,0.00,weatherlink.com 1.10,2013-04-28 04:34:00,
2013-04-27 21:49:00,70.5,29.0,29.94,West,259,9.0,16.0,21,0.00,,,0.00,weatherlink.com 1.10,2013-04-28 04:49:00,
2013-04-27 22:04:00,70.3,28.0,29.93,WNW,299,5.0,14.0,21,0.00,,,0.00,weatherlink.com 1.10,2013-04-28 05:04:00,
2013-04-27 22:19:00,69.9,28.0,29.94,West,273,8.0,13.0,21,0.00,,,0.00,weatherlink.com 1.10,2013-04-28 05:19:00,
2013-04-27 22:34:00,69.3,29.0,29.93,West,268,5.0,9.0,22,0.00,,,0.00,weatherlink.com 1.10,2013-04-28 05:34:00,
2013-04-27 22:49:00,68.9,29.0,29.93,West,274,5.0,13.0,23,0.00,,,0.00,weatherlink.com 1.10,2013-04-28 05:49:00,
2013-04-27 23:04:00,68.8,29.0,29.93,WSW,255,6.0,12.0,23,0.00,,,0.00,weatherlink.com 1.10,2013-04-28 06:04:00,
2013-04-27 23:19:00,69.0,28.0,29.92,NW,310,5.0,10.0,22,0.00,,,0.00,weatherlink.com 1.10,2013-04-28 06:19:00,
2013-04-27 23:34:00,68.7,28.0,29.92,WNW,290,6.0,10.0,22,0.00,,,0.00,weatherlink.com 1.10,2013-04-28 06:34:00,
2013-04-27 23:49:00,67.7,28.0,29.92,West,267,3.0,6.0,23,0.00,,,0.00,weatherlink.com 1.10,2013-04-28 06:49:00,